Location: Aranbee
(34.0885°N, 118.2342°W)
Time: 05:25:27
(UTC+00:00)

Explorer 7 - Pass Details

Date: 07 August 2021
Orbit: 484 x 676 km, 50.3° (Epoch: 23 September)

Event Time Altitude Azimuth Distance (km) Brightness Sun altitude
Exits shadow 10:25:21 24° 16° (NNE) 1,043 8.8 -28.7°
Drops below altitude 10° 10:27:12 10° 34° (NE) 1,674 10.2 -28.5°
Sets 10:29:30 0° 43° (NE) 2,572 11.5 -28.2°
